Time,TemperatureF,DewpointF,PressureIn,WindDirection,WindDirectionDegrees,WindSpeedMPH,WindSpeedGustMPH,Humidity,HourlyPrecipIn,Conditions,Clouds,dailyrainin,SoftwareType,DateUTC
2013-04-09 09:52:00,66.0,60.0,-100.00,North,10,8.0,-999.0,80,-99.99,,,-99.99,,2013-04-09 14:52:00,
2013-04-09 10:02:00,66.0,60.0,-100.00,North,10,8.0,-999.0,80,-99.99,,,-99.99,,2013-04-09 15:02:00,
2013-04-09 10:12:00,67.0,61.0,-100.00,North,10,11.0,18.0,80,-99.99,,,-99.99,,2013-04-09 15:12:00,
2013-04-09 10:22:00,69.0,62.0,-100.00,North,10,8.0,16.0,78,-99.99,,,-99.99,,2013-04-09 15:22:00,
2013-04-09 10:33:00,69.0,62.0,-100.00,North,10,8.0,16.0,78,-99.99,,,-99.99,,2013-04-09 15:33:00,
2013-04-09 10:43:00,71.0,62.0,-100.00,North,5,15.0,27.0,74,-99.99,,,-99.99,,2013-04-09 15:43:00,
2013-04-09 10:53:00,71.0,61.0,-100.00,North,5,20.0,31.0,71,-99.99,,,-99.99,,2013-04-09 15:53:00,
2013-04-09 11:03:00,71.0,61.0,-100.00,North,5,20.0,31.0,71,-99.99,,,-99.99,,2013-04-09 16:03:00,
2013-04-09 11:13:00,72.0,61.0,-100.00,North,5,17.0,27.0,68,-99.99,,,-99.99,,2013-04-09 16:13:00,
2013-04-09 11:23:00,73.0,61.0,-100.00,North,5,16.0,31.0,67,-99.99,,,-99.99,,2013-04-09 16:23:00,
2013-04-09 11:33:00,73.0,61.0,-100.00,North,5,16.0,31.0,67,-99.99,,,-99.99,,2013-04-09 16:33:00,
2013-04-09 11:42:00,74.0,62.0,-100.00,North,5,18.0,33.0,66,-99.99,,,-99.99,,2013-04-09 16:42:00,
2013-04-09 11:54:00,75.0,62.0,-100.00,North,5,21.0,32.0,65,-99.99,,,-99.99,,2013-04-09 16:54:00,
2013-04-09 12:02:00,75.0,62.0,-100.00,North,5,21.0,32.0,65,-99.99,,,-99.99,,2013-04-09 17:02:00,
2013-04-09 12:13:00,75.0,62.0,-100.00,North,5,24.0,34.0,64,-99.99,,,-99.99,,2013-04-09 17:13:00,
2013-04-09 12:23:00,75.0,61.0,-100.00,North,5,19.0,33.0,63,-99.99,,,-99.99,,2013-04-09 17:23:00,
2013-04-09 12:32:00,75.0,61.0,-100.00,North,5,19.0,33.0,63,-99.99,,,-99.99,,2013-04-09 17:32:00,
2013-04-09 12:42:00,75.0,62.0,-100.00,North,5,16.0,37.0,64,-99.99,,,-99.99,,2013-04-09 17:42:00,
2013-04-09 12:54:00,75.0,61.0,-100.00,North,5,21.0,33.0,62,-99.99,,,-99.99,,2013-04-09 17:54:00,
2013-04-09 13:02:00,75.0,61.0,-100.00,North,5,21.0,33.0,62,-99.99,,,-99.99,,2013-04-09 18:02:00,
2013-04-09 13:12:00,75.0,61.0,-100.00,North,5,21.0,33.0,60,-99.99,,,-99.99,,2013-04-09 18:12:00,
2013-04-09 13:22:00,77.0,61.0,-100.00,North,5,19.0,31.0,59,-99.99,,,-99.99,,2013-04-09 18:22:00,
2013-04-09 13:33:00,77.0,61.0,-100.00,North,5,19.0,31.0,59,-99.99,,,-99.99,,2013-04-09 18:33:00,
2013-04-09 13:43:00,77.0,62.0,-100.00,North,5,19.0,32.0,59,-99.99,,,-99.99,,2013-04-09 18:43:00,
2013-04-09 13:53:00,76.0,61.0,-100.00,North,5,26.0,35.0,60,-99.99,,,-99.99,,2013-04-09 18:53:00,
2013-04-09 14:03:00,76.0,61.0,-100.00,North,5,26.0,35.0,60,-99.99,,,-99.99,,2013-04-09 19:03:00,
2013-04-09 14:12:00,76.0,61.0,-100.00,North,5,26.0,35.0,60,-99.99,,,-99.99,,2013-04-09 19:12:00,
2013-04-09 14:53:00,78.0,61.0,-100.00,North,5,19.0,30.0,56,-99.99,,,-99.99,,2013-04-09 19:53:00,
2013-04-09 15:02:00,78.0,61.0,-100.00,North,5,19.0,30.0,56,-99.99,,,-99.99,,2013-04-09 20:02:00,
2013-04-09 15:12:00,78.0,61.0,-100.00,North,5,14.0,30.0,55,-99.99,,,-99.99,,2013-04-09 20:12:00,
2013-04-09 15:22:00,79.0,60.0,-100.00,North,5,20.0,32.0,53,-99.99,,,-99.99,,2013-04-09 20:22:00,
2013-04-09 15:30:00,79.0,59.0,-100.00,North,5,17.0,30.0,51,-99.99,,,-99.99,,2013-04-09 20:30:00,
2013-04-09 15:33:00,79.0,60.0,-100.00,North,5,20.0,32.0,53,-99.99,,,-99.99,,2013-04-09 20:33:00,
2013-04-09 15:43:00,79.0,60.0,-100.00,North,5,16.0,26.0,53,-99.99,,,-99.99,,2013-04-09 20:43:00,
2013-04-09 15:53:00,80.0,61.0,-100.00,North,5,14.0,26.0,52,-99.99,,,-99.99,,2013-04-09 20:53:00,
2013-04-09 16:02:00,80.0,61.0,-100.00,North,5,14.0,26.0,52,-99.99,,,-99.99,,2013-04-09 21:02:00,
2013-04-09 16:13:00,79.0,59.0,-100.00,North,5,17.0,30.0,51,-99.99,,,-99.99,,2013-04-09 21:13:00,
2013-04-09 16:22:00,79.0,59.0,-100.00,North,5,17.0,30.0,51,-99.99,,,-99.99,,2013-04-09 21:22:00,
2013-04-09 16:53:00,79.0,61.0,-100.00,North,5,14.0,23.0,54,-99.99,,,-99.99,,2013-04-09 21:53:00,
2013-04-09 17:03:00,79.0,61.0,-100.00,North,5,14.0,23.0,54,-99.99,,,-99.99,,2013-04-09 22:03:00,
2013-04-09 17:13:00,79.0,61.0,-100.00,North,5,14.0,20.0,54,-99.99,,,-99.99,,2013-04-09 22:13:00,
2013-04-09 17:23:00,78.0,61.0,-100.00,North,5,19.0,28.0,57,-99.99,,,-99.99,,2013-04-09 22:23:00,
2013-04-09 17:33:00,78.0,61.0,-100.00,North,5,19.0,28.0,57,-99.99,,,-99.99,,2013-04-09 22:33:00,
2013-04-09 17:42:00,78.0,61.0,-100.00,North,5,12.0,21.0,57,-99.99,,,-99.99,,2013-04-09 22:42:00,
2013-04-09 17:53:00,78.0,62.0,-100.00,North,5,14.0,25.0,59,-99.99,,,-99.99,,2013-04-09 22:53:00,
2013-04-09 18:03:00,78.0,62.0,-100.00,North,5,14.0,25.0,59,-99.99,,,-99.99,,2013-04-09 23:03:00,
2013-04-09 18:12:00,77.0,62.0,-100.00,North,5,14.0,22.0,60,-99.99,,,-99.99,,2013-04-09 23:12:00,
2013-04-09 18:23:00,78.0,63.0,-100.00,North,5,13.0,20.0,60,-99.99,,,-99.99,,2013-04-09 23:23:00,
2013-04-09 18:32:00,78.0,63.0,-100.00,North,5,13.0,20.0,60,-99.99,,,-99.99,,2013-04-09 23:32:00,
2013-04-09 18:42:00,76.0,62.0,-100.00,North,5,13.0,18.0,62,-99.99,,,-99.99,,2013-04-09 23:42:00,
2013-04-09 18:53:00,76.0,63.0,-100.00,North,5,16.0,21.0,64,-99.99,,,-99.99,,2013-04-09 23:53:00,
2013-04-09 19:03:00,76.0,63.0,-100.00,North,5,16.0,21.0,64,-99.99,,,-99.99,,2013-04-10 00:03:00,
2013-04-09 19:12:00,76.0,63.0,-100.00,North,5,16.0,21.0,64,-99.99,,,-99.99,,2013-04-10 00:12:00,
2013-04-09 19:23:00,75.0,63.0,-100.00,North,5,8.0,15.0,67,-99.99,,,-99.99,,2013-04-10 00:23:00,
2013-04-09 19:33:00,75.0,63.0,-100.00,North,5,8.0,15.0,67,-99.99,,,-99.99,,2013-04-10 00:33:00,
2013-04-09 19:42:00,74.0,63.0,-100.00,North,5,7.0,14.0,68,-99.99,,,-99.99,,2013-04-10 00:42:00,
2013-04-09 19:53:00,74.0,63.0,-100.00,North,5,6.0,11.0,68,-99.99,,,-99.99,,2013-04-10 00:53:00,
2013-04-09 20:02:00,74.0,63.0,-100.00,North,5,6.0,11.0,68,-99.99,,,-99.99,,2013-04-10 01:02:00,
2013-04-09 20:12:00,74.0,63.0,-100.00,North,5,6.0,11.0,69,-99.99,,,-99.99,,2013-04-10 01:12:00,
2013-04-09 20:23:00,73.0,63.0,-100.00,North,5,6.0,11.0,70,-99.99,,,-99.99,,2013-04-10 01:23:00,
2013-04-09 20:32:00,73.0,63.0,-100.00,North,5,6.0,11.0,70,-99.99,,,-99.99,,2013-04-10 01:32:00,
2013-04-09 20:42:00,73.0,63.0,-100.00,North,5,6.0,11.0,70,-99.99,,,-99.99,,2013-04-10 01:42:00,
2013-04-09 20:53:00,73.0,63.0,-100.00,North,5,6.0,12.0,70,-99.99,,,-99.99,,2013-04-10 01:53:00,
2013-04-09 21:02:00,73.0,63.0,-100.00,North,5,6.0,12.0,70,-99.99,,,-99.99,,2013-04-10 02:02:00,
2013-04-09 21:12:00,72.0,63.0,-100.00,North,5,8.0,11.0,71,-99.99,,,-99.99,,2013-04-10 02:12:00,
2013-04-09 21:22:00,72.0,63.0,-100.00,North,5,5.0,11.0,72,-99.99,,,-99.99,,2013-04-10 02:22:00,
2013-04-09 21:32:00,72.0,63.0,-100.00,North,5,5.0,11.0,72,-99.99,,,-99.99,,2013-04-10 02:32:00,
2013-04-09 21:43:00,72.0,62.0,-100.00,North,5,6.0,9.0,73,-99.99,,,-99.99,,2013-04-10 02:43:00,
2013-04-09 21:53:00,71.0,63.0,-100.00,North,5,7.0,11.0,74,-99.99,,,-99.99,,2013-04-10 02:53:00,
2013-04-09 22:03:00,71.0,63.0,-100.00,North,5,7.0,11.0,74,-99.99,,,-99.99,,2013-04-10 03:03:00,
2013-04-09 22:12:00,72.0,63.0,-100.00,North,5,5.0,11.0,74,-99.99,,,-99.99,,2013-04-10 03:12:00,
2013-04-09 22:22:00,72.0,63.0,-100.00,North,5,6.0,10.0,74,-99.99,,,-99.99,,2013-04-10 03:22:00,
2013-04-09 22:33:00,72.0,63.0,-100.00,North,5,6.0,10.0,74,-99.99,,,-99.99,,2013-04-10 03:33:00,
2013-04-09 22:43:00,72.0,63.0,-100.00,North,5,6.0,9.0,74,-99.99,,,-99.99,,2013-04-10 03:43:00,
2013-04-09 22:53:00,72.0,63.0,-100.00,North,5,5.0,7.0,74,-99.99,,,-99.99,,2013-04-10 03:53:00,
2013-04-09 23:03:00,72.0,63.0,-100.00,North,5,5.0,7.0,74,-99.99,,,-99.99,,2013-04-10 04:03:00,
2013-04-09 23:13:00,72.0,63.0,-100.00,North,5,7.0,11.0,74,-99.99,,,-99.99,,2013-04-10 04:13:00,
2013-04-09 23:23:00,71.0,63.0,-100.00,North,5,6.0,11.0,75,-99.99,,,-99.99,,2013-04-10 04:23:00,
2013-04-09 23:33:00,71.0,63.0,-100.00,North,5,6.0,11.0,75,-99.99,,,-99.99,,2013-04-10 04:33:00,
2013-04-09 23:43:00,71.0,63.0,-100.00,North,10,4.0,10.0,75,-99.99,,,-99.99,,2013-04-10 04:43:00,
2013-04-09 23:53:00,71.0,63.0,-100.00,North,10,6.0,10.0,76,-99.99,,,-99.99,,2013-04-10 04:53:00,